Location: Albany
(35.0170°S, 117.8920°E)
Time: 05:25:56
(UTC+08:00)

Transit 2A - All Passes

Search period start: 22 January 2021 00:00
Search period end: 01 February 2021 00:00
Orbit: 598 x 960 km, 66.7° (Epoch: 21 January)

Date Brightness Start Highest point End Pass type
(mag) Time Alt. Az. Time Alt. Az. Time Alt. Az.
22 Jan - 01:05:44 10° SSW 01:11:36 42° ESE 01:17:37 10° NE visible
22 Jan - 02:49:18 10° SW 02:54:41 30° WNW 03:00:07 10° NNW visible
22 Jan - 15:42:46 10° N 15:47:17 57° ENE 15:52:18 10° SE daylight
22 Jan - 17:27:53 10° W 17:30:58 17° SW 17:34:15 10° S daylight
23 Jan - 00:31:52 10° S 00:37:16 30° SE 00:42:49 10° ENE visible
23 Jan - 02:14:44 10° SW 02:20:39 44° WNW 02:26:37 10° N visible
23 Jan - 15:09:03 10° N 15:13:15 35° ENE 15:17:51 10° SE daylight
23 Jan - 16:52:39 10° WNW 16:56:31 24° SW 17:00:43 10° S daylight
23 Jan - 23:58:09 10° S 00:02:53 22° SE 00:07:42 10° E visible
24 Jan - 01:40:22 10° SSW 01:46:34 64° WNW 01:52:51 10° NNE visible
24 Jan - 14:35:42 10° NNE 14:39:17 22° ENE 14:43:09 10° SE daylight
24 Jan - 16:17:49 10° WNW 16:22:09 35° SW 16:26:56 10° S daylight
24 Jan - 23:24:40 10° S 23:28:25 16° SE 23:32:12 10° E visible
25 Jan - 01:06:08 10° SSW 01:12:25 90° ESE 01:18:49 10° NNE visible
25 Jan - 02:52:26 10° WSW 02:54:53 12° WNW 02:57:20 10° NW visible
25 Jan - 14:03:00 10° NE 14:05:24 14° ENE 14:07:52 10° ESE daylight
25 Jan - 15:43:16 10° NW 15:47:51 53° WSW 15:52:59 10° SSE daylight
25 Jan - 22:51:49 10° SSE 22:53:51 12° SE 22:55:55 10° ESE visible
26 Jan - 00:32:00 10° SSW 00:38:13 64° ESE 00:44:33 10° NE visible
26 Jan - 02:16:41 10° WSW 02:20:57 19° WNW 02:25:15 10° NNW visible
26 Jan - 15:08:59 10° NNW 15:13:39 83° WSW 15:18:54 10° SSE daylight
26 Jan - 16:56:35 10° WSW 16:57:52 11° SW 16:59:09 10° SSW daylight
26 Jan - 23:58:00 10° SSW 00:03:58 45° ESE 00:10:03 10° NE visible
27 Jan - 01:41:44 10° SW 01:46:59 28° WNW 01:52:16 10° NNW visible
27 Jan - 14:34:56 10° NNW 14:39:32 63° ENE 14:44:40 10° SSE daylight
27 Jan - 16:20:20 10° W 16:23:19 16° SW 16:26:28 10° S daylight
27 Jan - 23:24:05 10° S 23:29:39 33° SE 23:35:19 10° ENE visible
28 Jan - 01:07:07 10° SW 01:12:58 41° WNW 01:18:51 10° N visible
28 Jan - 14:01:09 10° N 14:05:29 39° ENE 14:10:16 10° SE daylight
28 Jan - 15:45:02 10° WNW 15:48:51 22° SW 15:52:58 10° S daylight
28 Jan - 22:50:21 10° S 22:55:16 24° SE 23:00:17 10° ENE visible
29 Jan - 00:32:42 10° SW 00:38:54 60° WNW 00:45:08 10° N visible
29 Jan - 13:27:43 10° NNE 13:31:31 25° ENE 13:35:37 10° SE daylight
29 Jan - 15:10:08 10° WNW 15:14:28 32° SW 15:19:13 10° S daylight
29 Jan - 22:16:47 10° S 22:20:48 17° SE 22:24:53 10° E visible
29 Jan - 23:58:26 10° SSW 00:04:46 85° WNW 00:11:09 10° NNE visible
30 Jan - 01:45:21 10° W 01:47:09 11° W 01:48:56 10° WNW visible
30 Jan - 12:54:49 10° NE 12:57:36 16° ENE 13:00:31 10° ESE daylight
30 Jan - 14:35:33 10° NW 14:40:09 49° WSW 14:45:18 10° SSE daylight
30 Jan - 21:43:42 10° SSE 21:46:16 13° SE 21:48:52 10° ESE visible
30 Jan - 23:24:17 10° SSW 23:30:35 69° ESE 23:36:56 10° NE visible
31 Jan - 01:09:13 10° WSW 01:13:15 18° WNW 01:17:16 10° NW visible
31 Jan - 14:01:12 10° NNW 14:05:55 76° WSW 14:11:14 10° SSE daylight
31 Jan - 15:49:30 10° SW 15:50:13 10° SW 15:50:56 10° SSW daylight
31 Jan - 22:50:15 10° SSW 22:56:20 49° ESE 23:02:28 10° NE visible
